Погода в Евсино

Россия / Новосибирская область     54°24′59″N   83°19′23″E
темп.,
°C
ветер,
м/с
пор.,
м/с
влажн.,
%
обл.,
%
осадки,
мм/ч
давл.,
гПа
погр.,
м
6 марта, сб
сб601:00−6юз111891100 2.3 1019984
04:00−6юз101787100 0.5 1019888
07:00−7ююз91786100 0.6 1019738
10:00−8ююз101985100 0.0 1018678
13:00−6ююз111981100 0.0 1015832
16:00−4юз111883100 0.0 1013986
19:00−4юз101887100 0.2 1012934
22:00−3юз91788100 0.0 1012831
7 марта, вс
вс701:00−3юз81690100 0.1 1013688
04:00−3зюз61196100 0.8 1013666
07:00−7зюз4990100 1.6 1015286
10:00−8зюз3790100 0.0 1017320
13:00−6з4680100 0.0 1019454
16:00−5з377961 0.0 1020564
19:00−10зюз228230 0.0 102221
22:00−12ююз128284 0.0 102321
8 марта, пн
пн801:00−11ююв338592 0.0 102327
04:00−10юв479493 0.0 1020120
07:00−8ююв5119583 0.0 1018251
10:00−6ю71489100 0.0 1015403
13:00−2ю91583100 0.0 1012582
16:00−1ююз91679100 0.0 1009701
19:00−2юз91782100 0.0 1009945
22:00−2юз8158999 0.1 1012812
9 марта, вт
вт901:00−10зюз6139172 0.4 1017361
04:00−12зюз5119288 0.0 1021293
07:00−14юз5119294 0.0 1024280
10:00−15юз498831 0.0 1026252
13:00−11ююз478537 0.0 1026325
16:00−7ююз588414 0.0 1025507
19:00−10ююв479133 0.0 1023106
22:00−11ю499191 0.0 1021153
10 марта, ср
ср1001:00−8ю4109482 0.1 1018251
04:00−5ююз5109599 0.1 1016313
07:00−3зюз499199 0.1 1016565
10:00−5ююз379599 0.0 1016274
13:00−2ююз469398 0.0 1015515
16:000ююз4689100 0.1 1013705
19:000ююв5893100 0.1 1009402
22:000ююв71592100 0.0 1005474